Flag for U.S.A. Weather past 2 weeks in Fort Bragg, California, U.S.A.

Now
73 °F

Sunny.


Feels Like: 77 °F
Forecast: 53 / 62 °F
Wind: 13 mph from Northwest

Location: Ukiah Municipal

Current Time: Jun 3, 2015 at 4:55:45 PM

Latest Report: Jun 3, 2015 at 3:56 PM


Visibility: 10 mi

Pressure: 29.85 "Hg

Humidity: 40%

Dew point: 47 °F

Location of Fort BraggLocation

Historic Weather in Fort Bragg — Graph

°F

Fort Bragg temperature yesterday

Maximum temperature yesterday: 78 °F (at 3:56 PM)
Minimum temperature yesterday: 54 °F (at 2:56 AM)
Average temperature yesterday: 65 °F

Past Weeks' High & Low Weather Summary

 TemperatureHumidityPressure
High90 °F (May 30, 3:56 PM)93% (May 31, 5:56 AM)30.07 "Hg (May 31, 5:56 AM)
Low48 °F (May 20, 4:56 AM)23% (May 27, 4:56 PM)29.80 "Hg (May 30, 5:56 PM)
Average64 °F62%29.93 "Hg
* Reported May 19 2:56 PM — Jun 3 2:56 PM, Fort Bragg, Weather by CustomWeather, © 2015

Note: Actual official high and low records may vary slightly from our data, if they occured in-between our weather recording intervals... More about our weather records

Advertising

Fort Bragg weather history for previous 24 hours

 ConditionsComfort  
Time TempWeatherWind HumidityBarometerVisibility
2:56 PM
Wed, Jun 3
74 °FSunny.10 mph43%29.85 "Hg10 mi
1:56 PM77 °FSunny.12 mph39%29.86 "Hg10 mi
12:56 PM74 °FSunny.14 mph41%29.88 "Hg10 mi
11:56 AM72 °FSunny.14 mph43%29.89 "Hg10 mi
10:56 AM67 °FSunny.10 mph51%29.91 "Hg10 mi
9:56 AM64 °FSunny.13 mph56%29.93 "Hg10 mi
8:56 AM62 °FSunny.8 mph62%29.94 "Hg10 mi
7:56 AM58 °FSunny.6 mph70%29.94 "Hg10 mi
6:56 AM54 °FSunny.No wind80%29.94 "Hg10 mi
5:56 AM52 °FClear.No wind80%29.93 "Hg10 mi
4:56 AM53 °FClear.No wind77%29.93 "Hg10 mi
3:56 AM53 °FClear.No wind77%29.93 "Hg10 mi
2:56 AM56 °FClear.5 mph72%29.93 "Hg10 mi
1:56 AM57 °FClear.No wind69%29.95 "Hg10 mi
12:56 AM58 °FClear.No wind70%29.96 "Hg10 mi
11:56 PM
Tue, Jun 2
59 °FClear.No wind67%29.97 "Hg10 mi
10:56 PM61 °FClear.5 mph62%29.98 "Hg10 mi
9:56 PM62 °FClear.7 mph58%29.98 "Hg10 mi
8:56 PM63 °FSunny.8 mph56%29.98 "Hg10 mi
7:56 PM65 °FSunny.7 mph54%29.97 "Hg10 mi
6:56 PM70 °FSunny.9 mph46%29.96 "Hg10 mi
5:56 PM75 °FSunny.7 mph36%29.95 "Hg10 mi
4:56 PM77 °FSunny.13 mph37%29.96 "Hg10 mi
Weather by CustomWeather, © 2015

See weather overviewHow to use our weather pages